Webcam more information Webcam


avvertimento per Temporali more information blitzortung!


avvertimento per Pioggia more information rain snow radar


altri nostri siti meteo:

RISCHIO INCENDIRischio incendi

Pomeziameteo 1Sito sul meteo

Pomeziameteo DashboardSito sul meteo

Caput FrigorisSito sul meteo

BarcellonameteoSito sul meteo

MeteoipassiSito sul meteo

TortoretometeolidoSito sul meteo

CastelnuovovomanometeoSito sul meteo

MeteogonzagaSito sul meteo

MeteonetworkInvio dai a Meteonetwork



Temporali Da: 25-08-2019 07:00 Fino a: 18:59 Avvertimento per: Temporali Livello: Giallo info button
Pioggia Da: 25-08-2019 07:00 Fino a: 18:59 Avvertimento per: Pioggia Livello: Giallo info button

Select another period ( hide this area )

Unita Periodo Custom range Directly to
Metrico Inglese Entrambi
Quotidiano Settimanale mensile Annuale
use both date-selectors for a custom range
previous Day
With this date

WeatherUnderground graphs for this period ( click here )


Quotidiano Riepilogo per Domenica 25 Agosto 2019
Tempo Temp. ( °C ) Dew pt. ( °C ) Vento ( km/h ) da Raffica ( km/h ) Pressione ( hPa ) Humid.( % ) Rainrate ( cm )
Max29,2 18,8 20,9 NE ( 410/1423 ) 24,1 1016,8 79 -
Media22,7 16,8 8,6 NE #44/165 14,7 1016,0 70 -
Min20,3 15,0 -   0,0 1015,5 51 -
Quotidiano Tabular details for Domenica 25 Agosto 2019
Tempo Temp. ( °C ) Dew pt. ( °C ) Vento ( km/h ) da Raffica ( km/h ) Pressione ( hPa ) Humid.( % ) Rainrate ( cm )
00:00 22,3 15,8 8,0 NE 14,5 1016,1 67 -
00:05 22,1 15,9 8,0 NE 12,9 1016,1 68 -
00:10 22,2 15,9 6,4 NE 14,5 1016,1 68 -
00:15 22,3 16,1 1,6 SE 19,3 1016,1 68 -
00:20 22,3 16,3 12,9 Nord 14,5 1016,1 69 -
00:25 22,1 16,3   calma 12,9 1016,1 70 -
00:30 21,7 16,2 12,9 NO 14,5 1016,1 71 -
00:35 21,6 16,3 6,4 NE 14,5 1016,1 72 -
00:40 21,4 16,4 6,4 NE 8,0 1016,1 73 -
00:45 21,6 16,3 4,8 NE 9,7 1016,1 72 -
00:50 21,4 16,4 8,0 Nord 12,9 1016,1 73 -
00:55 21,2 16,4 9,7 NE 14,5 1016,1 74 -
01:00 21,1 16,4 12,9 NE 14,5 1016,1 75 -
01:05 20,9 16,3 20,9 NE 19,3 1016,1 75 -
01:10 20,8 16,4 12,9 NE 24,1 1015,8 76 -
01:15 20,7 16,5 8,0 NE 20,9 1015,8 77 -
01:20 20,6 16,4 11,3 NE 19,3 1015,8 77 -
01:25 20,5 16,3 11,3 NE 19,3 1015,8 77 -
01:30 20,4 16,4 11,3 NE 22,5 1015,8 78 -
01:35 20,4 16,4 6,4 NE 17,7 1015,8 78 -
01:40 20,3 16,3 16,1 NE 17,7 1015,8 78 -
01:45 20,3 16,3 11,3 NE 24,1 1015,8 78 -
01:50 20,3 16,3 4,8 NE 20,9 1015,8 78 -
01:55 20,4 16,6 12,9 NE 19,3 1015,8 79 -
02:00 20,5 16,5 14,5 Oriente 20,9 1015,8 78 -
02:05 20,6 16,6 6,4 NE 17,7 1015,8 78 -
02:10 20,6 16,6 12,9 Oriente 16,1 1015,8 78 -
02:15 20,7 16,4 11,3 NE 17,7 1015,8 77 -
02:20 20,8 16,3 11,3 Oriente 16,1 1015,8 76 -
02:25 20,8 16,2 12,9 Oriente 17,7 1015,8 75 -
02:30 21,0 16,2 6,4 Oriente 14,5 1015,8 74 -
02:35 21,1 16,0 9,7 NE 17,7 1015,8 73 -
02:40 21,3 15,8 1,6 Oriente 12,9 1015,8 71 -
02:45 21,7 15,7 8,0 NE 11,3 1015,8 69 -
02:50 21,8 15,6 8,0 NE 16,1 1015,8 68 -
02:55 21,8 15,6 11,3 NE 16,1 1015,8 68 -
03:00 21,9 15,5 6,4 SE 12,9 1015,8 67 -
03:05 22,0 15,3 8,0 NE 16,1 1015,8 66 -
03:10 22,1 15,6 6,4 Oriente 12,9 1015,8 67 -
03:15 21,9 15,7 12,9 NE 14,5 1015,5 68 -
03:20 21,7 16,0 8,0 NE 17,7 1015,5 70 -
03:25 21,6 16,1 9,7 NE 19,3 1015,8 71 -
03:30 21,3 16,1 14,5 NE 16,1 1015,8 72 -
03:35 21,3 16,0 12,9 NE 19,3 1015,5 72 -
03:40 21,2 15,9 14,5 NE 17,7 1015,5 72 -
03:45 21,2 15,9 12,9 Oriente 17,7 1015,5 72 -
03:50 21,2 15,9 16,1 NE 17,7 1015,5 72 -
03:55 21,2 15,9 12,9 Oriente 17,7 1015,5 72 -
04:00 21,1 16,1 11,3 NE 16,1 1015,5 73 -
04:05 21,1 16,0 6,4 Oriente 16,1 1015,5 73 -
04:10 21,1 15,8 9,7 Oriente 14,5 1015,5 72 -
04:15 21,1 15,8 14,5 Oriente 16,1 1015,5 72 -
04:20 21,1 15,8 11,3 NE 17,7 1015,5 72 -
04:25 21,1 15,6 8,0 NE 14,5 1015,5 71 -
04:30 21,2 15,5 4,8 NE 14,5 1015,5 70 -
04:35 21,3 15,6 14,5 NE 14,5 1015,5 70 -
04:40 21,3 15,6 11,3 NE 16,1 1015,5 70 -
04:45 21,3 15,6 12,9 Oriente 16,1 1015,5 70 -
04:50 21,2 15,7 8,0 NE 16,1 1015,8 71 -
04:55 21,0 15,7 9,7 NE 14,5 1015,8 72 -
05:00 20,9 15,7 11,3 Oriente 14,5 1015,8 72 -
05:05 20,9 15,6 4,8 NE 17,7 1015,8 72 -
05:10 20,9 15,6 9,7 NE 17,7 1015,8 72 -
05:15 20,9 15,7 17,7 NE 20,9 1015,8 72 -
05:20 20,9 15,4 14,5 NE 19,3 1015,8 71 -
05:25 20,9 15,7 19,3 Oriente 22,5 1015,8 72 -
05:30 21,0 15,5 20,9 NE 22,5 1015,8 71 -
05:35 20,9 15,4 11,3 SE 20,9 1015,8 71 -
05:40 20,9 15,4 11,3 Oriente 17,7 1015,8 71 -
05:45 20,9 15,4 8,0 NE 17,7 1015,8 71 -
05:50 20,8 15,1 11,3 Oriente 14,5 1015,5 70 -
05:55 20,9 15,2 4,8 Oriente 14,5 1015,8 70 -
06:00 20,9 15,0 12,9 Oriente 16,1 1015,8 69 -
06:05 21,0 15,1 6,4 NE 16,1 1015,8 69 -
06:10 20,9 15,0 12,9 Oriente 14,5 1015,8 69 -
06:15 20,8 15,1 6,4 Oriente 16,1 1015,8 70 -
06:20 20,7 15,0 11,3 Oriente 12,9 1015,8 70 -
06:25 20,7 15,0 6,4 NE 12,9 1015,8 70 -
06:30 20,8 15,3 8,0 Oriente 11,3 1015,8 71 -
06:35 20,8 15,3 4,8 NE 8,0 1015,8 71 -
06:40 20,7 15,4 6,4 NE 6,4 1015,8 72 -
06:45 20,5 15,7 8,0 NE 12,9 1015,8 74 -
06:50 20,4 15,8 4,8 Oriente 12,9 1015,8 75 -
06:55 20,6 15,7 8,0 NE 16,1 1015,8 74 -
07:00 20,4 15,6 14,5 NE 17,7 1015,8 74 -
07:05 20,6 15,6 9,7 SE 19,3 1015,8 73 -
07:10 20,8 15,9 6,4 Oriente 14,5 1015,8 74 -
07:15 20,8 16,0 9,7 Oriente 12,9 1015,8 74 -
07:20 21,3 16,4 4,8 Oriente 12,9 1015,8 74 -
07:25 21,6 16,6 3,2 Oriente 6,4 1015,8 73 -
07:30 21,7 16,6 1,6 Oriente 4,8 1015,8 73 -
07:35 21,7 16,6   calma 3,2 1015,8 73 -
07:40 21,9 16,8   calma 3,2 1015,8 73 -
07:45 22,1 17,0   calma   1015,8 73 -
07:50 22,2 17,1 6,4 Nord 6,4 1016,1 73 -
07:55 21,7 17,2 6,4 NE 11,3 1016,1 76 -
08:00 21,5 17,1 6,4 NE 12,9 1016,1 76 -
08:05 21,4 16,7 8,0 NE 14,5 1016,1 75 -
08:10 21,2 16,8 11,3 NE 17,7 1016,1 76 -
08:15 21,2 16,9 6,4 Oriente 16,1 1016,1 77 -
08:20 21,4 17,2 8,0 NE 14,5 1016,1 77 -
08:25 21,7 17,3 6,4 NE 11,3 1016,1 76 -
08:30 22,1 17,4 3,2 NE 6,4 1016,1 75 -
08:35 22,1 17,4 4,8 NE 8,0 1016,1 75 -
08:40 22,0 17,6 4,8 NE 12,9 1016,1 76 -
08:45 21,9 17,7 8,0 NE 12,9 1016,1 77 -
08:50 22,0 17,6 4,8 NE 9,7 1016,5 76 -
08:55 22,3 17,9 3,2 NE 11,3 1016,5 76 -
09:00 22,4 17,7 14,5 NE 14,5 1016,5 75 -
09:05 22,4 17,5 19,3 NE 19,3 1016,5 74 -
09:10 22,3 17,2 16,1 NE 20,9 1016,5 73 -
09:15 22,3 17,4 12,9 NE 17,7 1016,5 74 -
09:20 22,5 17,4 16,1 NE 17,7 1016,5 73 -
09:25 22,7 17,6 11,3 NE 16,1 1016,5 73 -
09:30 23,2 17,8 3,2 NE 14,5 1016,5 72 -
09:35 23,4 17,8 6,4 NE 9,7 1016,5 71 -
09:40 23,3 17,7 9,7 NE 14,5 1016,5 71 -
09:45 23,4 17,8 8,0 NE 12,9 1016,5 71 -
09:50 23,4 17,8 9,7 NE 16,1 1016,8 71 -
09:55 23,4 18,1 9,7 NE 16,1 1016,5 72 -
10:00 23,6 18,2 14,5 Nord 16,1 1016,5 72 -
10:05 23,8 18,4 4,8 NE 16,1 1016,8 72 -
10:10 23,8 18,0 16,1 NE 17,7 1016,8 70 -
10:15 23,8 18,0 4,8 NE 17,7 1016,8 70 -
10:20 23,9 17,8 4,8 NE 17,7 1016,8 69 -
10:25 24,1 18,0 14,5 NE 17,7 1016,8 69 -
10:30 24,2 18,1 11,3 NE 16,1 1016,8 69 -
10:35 24,3 18,2 12,9 NE 16,1 1016,8 69 -
10:40 24,4 18,3 9,7 NE 14,5 1016,8 69 -
10:45 24,5 18,4 9,7 NE 16,1 1016,8 69 -
10:50 24,8 18,7 4,8 NE 12,9 1016,8 69 -
10:55 24,9 18,6 8,0 NE 16,1 1016,8 68 -
11:00 25,1 18,7 9,7 Nord 14,5 1016,8 68 -
11:05 25,4 18,6 6,4 NE 14,5 1016,8 66 -
11:10 25,4 18,8 4,8 NE 12,9 1016,8 67 -
11:15 25,8 18,7 4,8 NE 11,3 1016,8 65 -
11:20 25,6 18,2 14,5 NE 16,1 1016,5 64 -
11:25 25,6 18,4 9,7 NE 17,7 1016,8 65 -
11:30 25,9 18,8 8,0 Nord 12,9 1016,5 65 -
11:35 26,1 18,5 8,0 NE 14,5 1016,5 63 -
11:40 26,2 18,5 4,8 NE 16,1 1016,5 63 -
11:45 26,3 18,4 12,9 Nord 16,1 1016,5 62 -
11:50 26,3 18,7 4,8 Nord 12,9 1016,5 63 -
11:55 26,8 18,6 8,0 NE 12,9 1016,5 61 -
12:00 26,6 18,1 11,3 NE 16,1 1016,1 60 -
12:05 26,4 18,2   calma 12,9 1016,1 61 -
12:10 26,8 18,3 6,4 Nord 14,5 1016,1 60 -
12:15 26,4 18,3 8,0 NE 16,1 1016,1 61 -
12:20 26,8 18,6 8,0 Nord 12,9 1016,1 61 -
12:25 26,8 18,3 4,8 NE 14,5 1016,1 60 -
12:30 26,9 18,5 1,6 NE 11,3 1016,1 60 -
12:35 27,2 18,2 6,4 NE 12,9 1016,1 58 -
12:40 27,3 18,2 1,6 SE 8,0 1016,1 58 -
12:45 27,3 18,3 3,2 Nord 8,0 1015,8 58 -
12:50 27,9 18,6 1,6 SE 4,8 1015,8 57 -
12:55 28,2 18,5 3,2 SE 4,8 1015,8 56 -
13:00 27,9 18,3 8,0 NE 12,9 1015,8 56 -
13:05 27,8 18,2 1,6 SE 11,3 1015,8 56 -
13:10 28,6 18,3 4,8 SE 6,4 1015,8 54 -
13:15 28,8 18,3 1,6 NE 6,4 1015,8 53 -
13:20 28,8 18,3 8,0 NE 11,3 1015,8 53 -
13:25 28,4 18,2 11,3 Oriente 16,1 1015,5 54 -
13:30 28,9 18,3   calma 12,9 1015,5 53 -
13:35 28,8 18,2 3,2 Oriente 12,9 1015,5 53 -
13:40 29,2 18,0 3,2 S 12,9 1015,5 51 -
Quotidiano Riepilogo per Domenica 25 Agosto 2019
Tempo Temp. ( °C ) Dew pt. ( °C ) Vento ( km/h ) da Raffica ( km/h ) Pressione ( hPa ) Humid.( % ) Rainrate ( cm )
Max29,2 18,8 20,9 NE ( 410/1423 ) 24,1 1016,8 79 -
Media22,7 16,8 8,6 NE #44/165 14,7 1016,0 70 -
Min20,3 15,0 -   0,0 1015,5 51 -
Quotidiano Tabular details for Domenica 25 Agosto 2019
Tempo Temp. ( °C ) Dew pt. ( °C ) Vento ( km/h ) da Raffica ( km/h ) Pressione ( hPa ) Humid.( % ) Rainrate ( cm )
00:00 22,3 15,8 8,0 NE 14,5 1016,1 67 -
00:05 22,1 15,9 8,0 NE 12,9 1016,1 68 -
00:10 22,2 15,9 6,4 NE 14,5 1016,1 68 -
00:15 22,3 16,1 1,6 SE 19,3 1016,1 68 -
00:20 22,3 16,3 12,9 Nord 14,5 1016,1 69 -
00:25 22,1 16,3   calma 12,9 1016,1 70 -
00:30 21,7 16,2 12,9 NO 14,5 1016,1 71 -
00:35 21,6 16,3 6,4 NE 14,5 1016,1 72 -
00:40 21,4 16,4 6,4 NE 8,0 1016,1 73 -
00:45 21,6 16,3 4,8 NE 9,7 1016,1 72 -
00:50 21,4 16,4 8,0 Nord 12,9 1016,1 73 -
00:55 21,2 16,4 9,7 NE 14,5 1016,1 74 -
01:00 21,1 16,4 12,9 NE 14,5 1016,1 75 -
01:05 20,9 16,3 20,9 NE 19,3 1016,1 75 -
01:10 20,8 16,4 12,9 NE 24,1 1015,8 76 -
01:15 20,7 16,5 8,0 NE 20,9 1015,8 77 -
01:20 20,6 16,4 11,3 NE 19,3 1015,8 77 -
01:25 20,5 16,3 11,3 NE 19,3 1015,8 77 -
01:30 20,4 16,4 11,3 NE 22,5 1015,8 78 -
01:35 20,4 16,4 6,4 NE 17,7 1015,8 78 -
01:40 20,3 16,3 16,1 NE 17,7 1015,8 78 -
01:45 20,3 16,3 11,3 NE 24,1 1015,8 78 -
01:50 20,3 16,3 4,8 NE 20,9 1015,8 78 -
01:55 20,4 16,6 12,9 NE 19,3 1015,8 79 -
02:00 20,5 16,5 14,5 Oriente 20,9 1015,8 78 -
02:05 20,6 16,6 6,4 NE 17,7 1015,8 78 -
02:10 20,6 16,6 12,9 Oriente 16,1 1015,8 78 -
02:15 20,7 16,4 11,3 NE 17,7 1015,8 77 -
02:20 20,8 16,3 11,3 Oriente 16,1 1015,8 76 -
02:25 20,8 16,2 12,9 Oriente 17,7 1015,8 75 -
02:30 21,0 16,2 6,4 Oriente 14,5 1015,8 74 -
02:35 21,1 16,0 9,7 NE 17,7 1015,8 73 -
02:40 21,3 15,8 1,6 Oriente 12,9 1015,8 71 -
02:45 21,7 15,7 8,0 NE 11,3 1015,8 69 -
02:50 21,8 15,6 8,0 NE 16,1 1015,8 68 -
02:55 21,8 15,6 11,3 NE 16,1 1015,8 68 -
03:00 21,9 15,5 6,4 SE 12,9 1015,8 67 -
03:05 22,0 15,3 8,0 NE 16,1 1015,8 66 -
03:10 22,1 15,6 6,4 Oriente 12,9 1015,8 67 -
03:15 21,9 15,7 12,9 NE 14,5 1015,5 68 -
03:20 21,7 16,0 8,0 NE 17,7 1015,5 70 -
03:25 21,6 16,1 9,7 NE 19,3 1015,8 71 -
03:30 21,3 16,1 14,5 NE 16,1 1015,8 72 -
03:35 21,3 16,0 12,9 NE 19,3 1015,5 72 -
03:40 21,2 15,9 14,5 NE 17,7 1015,5 72 -
03:45 21,2 15,9 12,9 Oriente 17,7 1015,5 72 -
03:50 21,2 15,9 16,1 NE 17,7 1015,5 72 -
03:55 21,2 15,9 12,9 Oriente 17,7 1015,5 72 -
04:00 21,1 16,1 11,3 NE 16,1 1015,5 73 -
04:05 21,1 16,0 6,4 Oriente 16,1 1015,5 73 -
04:10 21,1 15,8 9,7 Oriente 14,5 1015,5 72 -
04:15 21,1 15,8 14,5 Oriente 16,1 1015,5 72 -
04:20 21,1 15,8 11,3 NE 17,7 1015,5 72 -
04:25 21,1 15,6 8,0 NE 14,5 1015,5 71 -
04:30 21,2 15,5 4,8 NE 14,5 1015,5 70 -
04:35 21,3 15,6 14,5 NE 14,5 1015,5 70 -
04:40 21,3 15,6 11,3 NE 16,1 1015,5 70 -
04:45 21,3 15,6 12,9 Oriente 16,1 1015,5 70 -
04:50 21,2 15,7 8,0 NE 16,1 1015,8 71 -
04:55 21,0 15,7 9,7 NE 14,5 1015,8 72 -
05:00 20,9 15,7 11,3 Oriente 14,5 1015,8 72 -
05:05 20,9 15,6 4,8 NE 17,7 1015,8 72 -
05:10 20,9 15,6 9,7 NE 17,7 1015,8 72 -
05:15 20,9 15,7 17,7 NE 20,9 1015,8 72 -
05:20 20,9 15,4 14,5 NE 19,3 1015,8 71 -
05:25 20,9 15,7 19,3 Oriente 22,5 1015,8 72 -
05:30 21,0 15,5 20,9 NE 22,5 1015,8 71 -
05:35 20,9 15,4 11,3 SE 20,9 1015,8 71 -
05:40 20,9 15,4 11,3 Oriente 17,7 1015,8 71 -
05:45 20,9 15,4 8,0 NE 17,7 1015,8 71 -
05:50 20,8 15,1 11,3 Oriente 14,5 1015,5 70 -
05:55 20,9 15,2 4,8 Oriente 14,5 1015,8 70 -
06:00 20,9 15,0 12,9 Oriente 16,1 1015,8 69 -
06:05 21,0 15,1 6,4 NE 16,1 1015,8 69 -
06:10 20,9 15,0 12,9 Oriente 14,5 1015,8 69 -
06:15 20,8 15,1 6,4 Oriente 16,1 1015,8 70 -
06:20 20,7 15,0 11,3 Oriente 12,9 1015,8 70 -
06:25 20,7 15,0 6,4 NE 12,9 1015,8 70 -
06:30 20,8 15,3 8,0 Oriente 11,3 1015,8 71 -
06:35 20,8 15,3 4,8 NE 8,0 1015,8 71 -
06:40 20,7 15,4 6,4 NE 6,4 1015,8 72 -
06:45 20,5 15,7 8,0 NE 12,9 1015,8 74 -
06:50 20,4 15,8 4,8 Oriente 12,9 1015,8 75 -
06:55 20,6 15,7 8,0 NE 16,1 1015,8 74 -
07:00 20,4 15,6 14,5 NE 17,7 1015,8 74 -
07:05 20,6 15,6 9,7 SE 19,3 1015,8 73 -
07:10 20,8 15,9 6,4 Oriente 14,5 1015,8 74 -
07:15 20,8 16,0 9,7 Oriente 12,9 1015,8 74 -
07:20 21,3 16,4 4,8 Oriente 12,9 1015,8 74 -
07:25 21,6 16,6 3,2 Oriente 6,4 1015,8 73 -
07:30 21,7 16,6 1,6 Oriente 4,8 1015,8 73 -
07:35 21,7 16,6   calma 3,2 1015,8 73 -
07:40 21,9 16,8   calma 3,2 1015,8 73 -
07:45 22,1 17,0   calma   1015,8 73 -
07:50 22,2 17,1 6,4 Nord 6,4 1016,1 73 -
07:55 21,7 17,2 6,4 NE 11,3 1016,1 76 -
08:00 21,5 17,1 6,4 NE 12,9 1016,1 76 -
08:05 21,4 16,7 8,0 NE 14,5 1016,1 75 -
08:10 21,2 16,8 11,3 NE 17,7 1016,1 76 -
08:15 21,2 16,9 6,4 Oriente 16,1 1016,1 77 -
08:20 21,4 17,2 8,0 NE 14,5 1016,1 77 -
08:25 21,7 17,3 6,4 NE 11,3 1016,1 76 -
08:30 22,1 17,4 3,2 NE 6,4 1016,1 75 -
08:35 22,1 17,4 4,8 NE 8,0 1016,1 75 -
08:40 22,0 17,6 4,8 NE 12,9 1016,1 76 -
08:45 21,9 17,7 8,0 NE 12,9 1016,1 77 -
08:50 22,0 17,6 4,8 NE 9,7 1016,5 76 -
08:55 22,3 17,9 3,2 NE 11,3 1016,5 76 -
09:00 22,4 17,7 14,5 NE 14,5 1016,5 75 -
09:05 22,4 17,5 19,3 NE 19,3 1016,5 74 -
09:10 22,3 17,2 16,1 NE 20,9 1016,5 73 -
09:15 22,3 17,4 12,9 NE 17,7 1016,5 74 -
09:20 22,5 17,4 16,1 NE 17,7 1016,5 73 -
09:25 22,7 17,6 11,3 NE 16,1 1016,5 73 -
09:30 23,2 17,8 3,2 NE 14,5 1016,5 72 -
09:35 23,4 17,8 6,4 NE 9,7 1016,5 71 -
09:40 23,3 17,7 9,7 NE 14,5 1016,5 71 -
09:45 23,4 17,8 8,0 NE 12,9 1016,5 71 -
09:50 23,4 17,8 9,7 NE 16,1 1016,8 71 -
09:55 23,4 18,1 9,7 NE 16,1 1016,5 72 -
10:00 23,6 18,2 14,5 Nord 16,1 1016,5 72 -
10:05 23,8 18,4 4,8 NE 16,1 1016,8 72 -
10:10 23,8 18,0 16,1 NE 17,7 1016,8 70 -
10:15 23,8 18,0 4,8 NE 17,7 1016,8 70 -
10:20 23,9 17,8 4,8 NE 17,7 1016,8 69 -
10:25 24,1 18,0 14,5 NE 17,7 1016,8 69 -
10:30 24,2 18,1 11,3 NE 16,1 1016,8 69 -
10:35 24,3 18,2 12,9 NE 16,1 1016,8 69 -
10:40 24,4 18,3 9,7 NE 14,5 1016,8 69 -
10:45 24,5 18,4 9,7 NE 16,1 1016,8 69 -
10:50 24,8 18,7 4,8 NE 12,9 1016,8 69 -
10:55 24,9 18,6 8,0 NE 16,1 1016,8 68 -
11:00 25,1 18,7 9,7 Nord 14,5 1016,8 68 -
11:05 25,4 18,6 6,4 NE 14,5 1016,8 66 -
11:10 25,4 18,8 4,8 NE 12,9 1016,8 67 -
11:15 25,8 18,7 4,8 NE 11,3 1016,8 65 -
11:20 25,6 18,2 14,5 NE 16,1 1016,5 64 -
11:25 25,6 18,4 9,7 NE 17,7 1016,8 65 -
11:30 25,9 18,8 8,0 Nord 12,9 1016,5 65 -
11:35 26,1 18,5 8,0 NE 14,5 1016,5 63 -
11:40 26,2 18,5 4,8 NE 16,1 1016,5 63 -
11:45 26,3 18,4 12,9 Nord 16,1 1016,5 62 -
11:50 26,3 18,7 4,8 Nord 12,9 1016,5 63 -
11:55 26,8 18,6 8,0 NE 12,9 1016,5 61 -
12:00 26,6 18,1 11,3 NE 16,1 1016,1 60 -
12:05 26,4 18,2   calma 12,9 1016,1 61 -
12:10 26,8 18,3 6,4 Nord 14,5 1016,1 60 -
12:15 26,4 18,3 8,0 NE 16,1 1016,1 61 -
12:20 26,8 18,6 8,0 Nord 12,9 1016,1 61 -
12:25 26,8 18,3 4,8 NE 14,5 1016,1 60 -
12:30 26,9 18,5 1,6 NE 11,3 1016,1 60 -
12:35 27,2 18,2 6,4 NE 12,9 1016,1 58 -
12:40 27,3 18,2 1,6 SE 8,0 1016,1 58 -
12:45 27,3 18,3 3,2 Nord 8,0 1015,8 58 -
12:50 27,9 18,6 1,6 SE 4,8 1015,8 57 -
12:55 28,2 18,5 3,2 SE 4,8 1015,8 56 -
13:00 27,9 18,3 8,0 NE 12,9 1015,8 56 -
13:05 27,8 18,2 1,6 SE 11,3 1015,8 56 -
13:10 28,6 18,3 4,8 SE 6,4 1015,8 54 -
13:15 28,8 18,3 1,6 NE 6,4 1015,8 53 -
13:20 28,8 18,3 8,0 NE 11,3 1015,8 53 -
13:25 28,4 18,2 11,3 Oriente 16,1 1015,5 54 -
13:30 28,9 18,3   calma 12,9 1015,5 53 -
13:35 28,8 18,2 3,2 Oriente 12,9 1015,5 53 -
13:40 29,2 18,0 3,2 S 12,9 1015,5 51 -

Download your copy of this data-set  here

Our weather-data as stored at Weather Underground. Script sviluppato da Jim McMurry. Adattato per il modello da Leuven-Template.eu

Strumentazione usata:

Stazione meteo
Davis VP2

Programma gestore dati meteo
WVIEW

Server per i dati meteo
WDS-5

Davis VP2

WVIEW

WDS-5